This is the latest recevied weather packets stored in our database for station/object KC5DAQ-28. If no packets are shown the sender has not sent any weather packets the latest 10 day(s).
| Time | Temp. | Humidity | Pressure | Rain* | Wind** | Luminosity | Snow |
|---|---|---|---|---|---|---|---|
| 1787939822 | 34.44° C | 59% | 1011.1 hPa | 0 mm | - | 1145 W/m² | - |
| 1787939763 | 34.44° C | 59% | 1011.1 hPa | 0 mm | - | 1148 W/m² | - |
| 1787939703 | 34.44° C | 59% | 1011.1 hPa | 0 mm | - | 1139 W/m² | - |
| 1787939645 | 34.44° C | 58% | 1011.2 hPa | 0 mm | - | 1143 W/m² | - |
| 1787939583 | 35° C | 58% | 1011.1 hPa | 0 mm | - | 1027 W/m² | - |
| 1787939522 | 35° C | 58% | 1011.2 hPa | 0 mm | - | 1071 W/m² | - |
| 1787939465 | 35° C | 57% | 1011.2 hPa | 0 mm | - | 1071 W/m² | - |
| 1787939404 | 35.56° C | 57% | 1011.2 hPa | 0 mm | - | 899 W/m² | - |
| 1787939343 | 35.56° C | 58% | 1011.2 hPa | 0 mm | - | 899 W/m² | - |
| 1787939283 | 35.56° C | 58% | 1011.2 hPa | 0 mm | - | 899 W/m² | - |
| 1787939222 | 35.56° C | 58% | 1011.4 hPa | 0 mm | - | 1043 W/m² | - |
| 1787939162 | 35° C | 59% | 1011.3 hPa | 0 mm | - | 1055 W/m² | - |
| 1787939103 | 35° C | 59% | 1011.3 hPa | 0 mm | - | 1071 W/m² | - |
| 1787939043 | 35° C | 59% | 1011.3 hPa | 0 mm | - | 1067 W/m² | - |
| 1787938984 | 35° C | 58% | 1011.3 hPa | 0 mm | - | 1062 W/m² | - |
| 1787938923 | 35° C | 58% | 1011.3 hPa | 0 mm | - | 1046 W/m² | - |
| 1787938866 | 35° C | 59% | 1011.4 hPa | 0 mm | - | 1046 W/m² | - |
| 1787938804 | 35° C | 58% | 1011.2 hPa | 0 mm | - | 1046 W/m² | - |
| 1787938745 | 35° C | 58% | 1011.3 hPa | 0 mm | - | 1050 W/m² | - |
| 1787938683 | 35° C | 58% | 1011.2 hPa | 0 mm | - | 1039 W/m² | - |
| 1787938622 | 35° C | 59% | 1011.2 hPa | 0 mm | - | 1009 W/m² | - |
| 1787938562 | 34.44° C | 60% | 1011.3 hPa | 0 mm | - | 1009 W/m² | - |
| 1787938504 | 34.44° C | 60% | 1011.3 hPa | 0 mm | - | 976 W/m² | - |
| 1787938443 | 34.44° C | 59% | 1011.2 hPa | 0 mm | - | 1027 W/m² | - |
| 1787938384 | 34.44° C | 59% | 1011.3 hPa | 0 mm | - | 1004 W/m² | - |
* Rain latest hour (hover to see other rain measurements)
** Current wind speed in m/s (hover to see current wind gust speed)